NOAA 16 DEB, 41204

Orbit data source: Space-Track

NOAA 16 DEB, 41204 is space debris in SSO originally from a launch on Thu, 21 Sep 2000 UTC launched from the Air Force Western Test Range (AFWTR). Debris objects in space refer to the collection of defunct objects orbiting the Earth. Examples of debris include non-operational satellites, rocket bodies, and fragments generated from explosions, collisions, or faulty payload assembly.

Loading next visibility...
Identifier
41204, 2000-055DH
Orbit
SSO
Country
Flag of USUS
Related business
Manufacturer
Unknown
Mission
Spacecraft
Bus & Motor
Unknown
Mass
Unknown
Launch date (UTC)
2000-09-21 (25 years ago)
Launch vehicle
Unknown
Launch site
Air Force Western Test Range (AFWTR)
Object type
Payload
Rocket body
Debris
Shape & HBR
Unknown shape, 0.1 m
Radar Cross Section
Small (<0.1 m²)

Expand to show TLE details & history
Last TLE update: 3 days ago

TLE from 3 days ago
0 NOAA 16 DEB
1 41204U 00055DH  25349.40574360  .00002385  00000-0  11318-2 0  9997
2 41204  98.7192  50.6889 0019958  37.2716 322.9841 14.20341586516222
Epoch: 2025-12-15T09:44Z
TLE epoch observation values (Epoch: 2025-12-15T09:44:16.247Z)
Latitude
-0.00003°
Longitude
-179.68356°
Altitude
815.643 km
Speed
7.451 km/s
True Right ascension
03h 22m 45s
True Declination
0° 00' 00"
Sunlit
Object was in full shadow at epoch
Visualization orbit readout
Latitude
Unknown
Longitude
Unknown
Altitude
Unknown
Speed
Unknown
Apparent Right ascension
Unknown
Apparent Declination
Unknown
Sunlit
N/A
Visualization observer readout
Local Sidereal Time
23:46:18
Azimuth
Unknown
Elevation
Unknown
Doppler factor
Unknown
Orbital elements
Apogee altitude
835.725 km
Perigee altitude
806.988 km
Semi-major axis
7,199.493 km
Eccentricity
0.002
Inclination
98.7192°
RAAN
50.6889°
Arg. of periapsis
37.2716°
True anomaly
322.84614°
Mean anomaly
322.9841°
Eccentric anomaly
322.91515°
Mean motion
3.55296 °/min
Orbital period
101.32 mins
BSTAR
0.0011318
Loading maneuver chart data...
Computing Atmospheric mass density...
Loading historical data...
Loading historical data...
Loading historical data...
Loading historical data...
Loading historical data...
Loading historical data...
Loading historical data...

Documentation

Showing up to 5 results
|